Location: Carrer del Canonge
(41.4901°N, 2.2931°E)
Time: 04:54:38
(UTC+00:00)

Cosmos 2233 Rocket - Pass Details

Date: 18 September 2020
Orbit: 952 x 991 km, 82.9° (Epoch: 25 October)

Event Time Altitude Azimuth Distance (km) Brightness Sun altitude
Rises 18:39:28 0° 191° (S) 3,671 7.0 -9.2°
Reaches altitude 10° 18:42:00 10° 193° (SSW) 2,722 6.4 -9.7°
Maximum altitude 18:48:13 73° 278° (W) 1,017 4.3 -10.8°
Drops below altitude 10° 18:54:26 10° 4° (N) 2,713 6.5 -12.0°
Sets 18:56:57 0° 6° (N) 3,658 7.1 -12.4°
